Regional Weather Roundup
Issued by NWS Mt. Holly, NJ

Home | Current Version | Previous Version | Text Only | Print | Product List | Glossary On
Versions: 1 2 3 4 5 6 7 8 9 10 11 12 13 14 15 16 17 18 19 20 21 22 23 24 25 26 27 28 29 30 31 32 33 34 35 36 37 38 39 40 41 42 43 44 45 46 47 48 49 50
000
ASUS41 KPHI 192310
RWRPHI

REGIONAL WEATHER ROUNDUP
NATIONAL WEATHER SERVICE MOUNT HOLLY NJ
600 PM EST FRI DEC 19 2014

NOTE:  "FAIR" INDICATES FEW OR NO CLOUDS BELOW 12,000 FEET WITH NO
SIGNIFICANT WEATHER AND/OR OBSTRUCTIONS TO VISIBILITY.

 * = STATION DOES NOT REPORT PRECIPITATION (E.G. RAIN, SNOW, ETC.)
        OR FOG.

NJZ015>026-200000-
SOUTHERN NEW JERSEY

CITY           SKY/WX    TMP DP  RH WIND       PRES   REMARKS
POMONA         CLEAR     34  22  61 W7        30.13R WCI  28
RIO GRANDE*    CLEAR     37  25  60 NW6       30.13R WCI  33
MILLVILLE      CLEAR     32  23  69 W6        30.14R WCI  26
WRIGHTSTOWN    CLEAR     32  22  66 NW10      30.11R WCI  23
MOUNT HOLLY    CLEAR     34  22  61 N10       30.14R WCI  26
TRENTON        CLEAR     32  20  61 NW5       30.13R WCI  27

$$
NJZ001>014-200000-
NORTHERN NEW JERSEY

CITY           SKY/WX    TMP DP  RH WIND       PRES   REMARKS
SUSSEX         CLOUDY    29  20  69 VRB6      30.13R WCI  23
ANDOVER*         N/A     29  20  69 VRB6      30.13R WCI  23
MORRISTOWN     MOCLDY    32  21  64 N8        30.13R WCI  25
NEWARK         MOCLDY    33  21  61 NW14G22   30.13R WCI  23
TETERBORO      MOCLDY    33  20  58 NW15      30.12R WCI  23
CALDWELL       CLOUDY    32  20  61 VRB3      30.13R
SOMERVILLE     CLOUDY    33  20  58 NW12      30.13R WCI  24
ALLAIRE*       CLEAR     34  19  55 NW12      30.12R WCI  25
TOMS RIVER*    CLEAR     34  21  60 N6        30.13R WCI  29

$$
PAZ043-044-047-054-055-060>062-066>071-200000-
EASTERN PENNSYLVANIA

CITY           SKY/WX    TMP DP  RH WIND       PRES   REMARKS
PHILADELPHIA   CLEAR     39  21  48 NW9       30.16R WCI  33
NORTH PHILA    CLEAR     35  20  54 N9        30.16R WCI  28
BLUE BELL      CLEAR     36  23  60 CALM      30.13R
DOYLESTOWN     CLEAR     30  21  69 N6        30.13R WCI  24
QUAKERTOWN*    CLEAR     32  21  64 N5        30.14R WCI  27
POTTSTOWN      CLEAR     34  20  56 N7        30.15R WCI  28
LANCASTER      CLEAR     33  21  61 NW9       30.16R WCI  25
COATESVILLE    CLEAR     36  23  60 NW12      30.14R WCI  27
READING        MOCLDY    35  21  56 NW13      30.15R WCI  26
ALLENTOWN      CLOUDY    33  20  58 N16       30.16R WCI  23
MOUNT POCONO   CLOUDY    25  18  74 NW14G21   30.05R WCI  13
HAZLETON       CLOUDY    28  21  74 NW9G17    30.13R WCI  20
WILKES BARRE   CLOUDY    30  20  66 N8        30.14R WCI  22

$$
DEZALL-MDZ008-012-015-019-020-200000-
DELAWARE AND EASTERN MARYLAND

CITY           SKY/WX    TMP DP  RH WIND       PRES   REMARKS
WILMINGTON     CLEAR     35  22  58 NW7       30.16R WCI  29
DOVER          CLEAR     36  24  62 W2        30.13R
GEORGETOWN     CLEAR     36  24  62 W5        30.17R WCI  32
EASTON         CLEAR     37  27  65 CALM      30.21R
PATUXENT       PTCLDY    35  22  58 W5        30.18R WCI  31
OCEAN CITY     CLEAR     36  24  62 NW6       30.17R WCI  31
WALLOPS ISLAND CLOUDY    36  25  64 NW7       30.19R WCI  30
CAMBRIDGE      CLEAR     36  27  69 W3        30.18R
SALISBURY      PTCLDY    38  24  57 W6        30.17S WCI  33

$$
PAZ001-021-NYZ056-072-MDZ011-DCZ001-200000-
OTHER NEARBY LOCATIONS

CITY           SKY/WX    TMP DP  RH WIND       PRES   REMARKS
HARRISBURG     PTCLDY    34  20  56 NW7       30.17R WCI  28
STATE COLLEGE  MOCLDY    30  19  64 NW7       30.17R WCI  23
WILLIAMSPORT   CLOUDY    34  20  56 NW9       30.18R WCI  27
BINGHAMTON     CLOUDY    23  20  88 NW8       30.11R WCI  14
NEW YORK CITY  MOCLDY    33  19  56 NW9G20    30.14R WCI  25
BALTIMORE      PTCLDY    36  23  59 NW7       30.16R WCI  30
WASHINGTON DC  PTCLDY    40  22  48 NW12      30.20R WCI  33

$$


USA.gov is the U.S. government's official web portal to all federal, state and local government web resources and services.